Scottsbluff, NE

1:00 PM MST on February 25, 2017 (GMT -0700)
Heilig

Weather History for KBFF - November, 2011

Change the Weather History Date:

Wednesday, November 30, 2011

  Actual Average Record
Temperature  
Mean Temperature 38 °F 29 °F  
Max Temperature 56 °F 43 °F 70 °F (1995)
Min Temperature 20 °F 15 °F -13 °F (2004)
Degree Days  
Heating Degree Days 27 36  
Month to date heating degree days 825 873  
Since 1 July heating degree days 1369 1565  
Cooling Degree Days 0 0  
Month to date cooling degree days 0 0  
Year to date cooling degree days 932 724  
Moisture  
Dew Point 24 °F    
Average Humidity 59    
Maximum Humidity 91    
Minimum Humidity 26    
Precipitation  
Precipitation 0.00 in 0.02 in 0.25 in (1922)
Month to date precipitation 0.37 0.66  
Year to date precipitation 18.50 15.28  
Snow  
Snow 0.00 in 0.20 in 2.90 in (1985)
Month to date snowfall 5.3 5.7  
Since 1 July snowfall 5.3 8.9  
Snow Depth 0.00 in    
Sea Level Pressure  
Sea Level Pressure 29.93 in    
Wind  
Wind Speed 6 mph (NNE)    
Max Wind Speed 20 mph    
Max Gust Speed 25 mph    
Visibility 10 miles    
Events      
T = Trace of Precipitation, MM = Missing Value Source: NWS Daily Summary

Daily Weather History Graph

Daily Weather History Graph

Search for Another Location

Airport or City:

Trip Planner

Search our weather history database for the weather conditions in past years. The results will help you decide how hot, cold, wet, or windy it might be!

Date:

Astronomy

Nov. 30, 2011 Rise Set
Actual Time 7:01 AM MST 4:24 PM MST
Civil Twilight 6:30 AM MST 4:55 PM MST
Nautical Twilight 5:55 AM MST 5:30 PM MST
Astronomical Twilight 5:22 AM MST 6:03 PM MST
Moon 11:17 AM MST (11/30) 10:27 PM MST (11/30)
Length of Visible Light 10h 25m
Length of Day
9h 23m
Waxing Crescent, 34% of the Moon is Illuminated
Nov 30
Waxing Crescent
Dec 2
First Quarter
Dec 10
Full
Dec 17
Last Quarter
Dec 24
New

Hourly Weather History & Observations

Time (MST) Temp. Windchill Dew Point Humidity Pressure Visibility Wind Dir Wind Speed Gust Speed Precip Events Conditions
12:53 AM 28.0 °F 22.8 °F 21.0 °F 75% 30.00 in 10.0 mi East 4.6 mph - N/A   Clear
1:53 AM 25.0 °F 20.7 °F 19.0 °F 78% 29.98 in 10.0 mi NE 3.5 mph - N/A   Clear
2:53 AM 24.1 °F 18.2 °F 19.0 °F 81% 29.95 in 10.0 mi SSE 4.6 mph - N/A   Clear
3:53 AM 24.8 °F 20.5 °F 19.4 °F 80% 29.89 in 10.0 mi ENE 3.5 mph - N/A   Clear
4:53 AM 24.8 °F 19.1 °F 19.4 °F 80% 29.87 in 10.0 mi NNE 4.6 mph - N/A   Clear
5:53 AM 19.4 °F - 17.6 °F 93% 29.85 in 10.0 mi Calm Calm - N/A   Clear
6:53 AM 23.0 °F - 19.0 °F 85% 29.93 in 10.0 mi Calm Calm - N/A   Clear
7:53 AM 27.0 °F - 21.9 °F 81% 29.91 in 10.0 mi Calm Calm - N/A   Clear
8:53 AM 30.9 °F - 24.1 °F 76% 29.91 in 10.0 mi Calm Calm - N/A   Clear
9:53 AM 37.0 °F - 26.1 °F 65% 29.88 in 10.0 mi Calm Calm - N/A   Clear
10:53 AM 39.9 °F - 26.1 °F 58% 29.84 in 10.0 mi Calm Calm - N/A   Clear
11:53 AM 46.9 °F - 27.0 °F 46% 29.81 in 10.0 mi Calm Calm - N/A   Clear
12:53 PM 53.1 °F - 26.1 °F 35% 29.76 in 10.0 mi Calm Calm - N/A   Clear
1:53 PM 55.0 °F - 21.9 °F 28% 29.78 in 10.0 mi NNW 12.7 mph - N/A   Clear
2:53 PM 51.1 °F - 24.1 °F 35% 29.82 in 10.0 mi North 13.8 mph 25.3 mph N/A   Clear
3:53 PM 46.9 °F - 26.1 °F 44% 29.86 in 10.0 mi North 11.5 mph - N/A   Clear
4:53 PM 44.1 °F 38.1 °F 25.0 °F 47% 29.91 in 10.0 mi North 11.5 mph 20.7 mph N/A   Clear
5:53 PM 42.1 °F 39.2 °F 26.1 °F 53% 29.98 in 10.0 mi Variable 4.6 mph - N/A   Clear
6:53 PM 39.2 °F 32.0 °F 24.8 °F 56% 29.94 in 10.0 mi North 11.5 mph - N/A   Clear
7:53 PM 37.9 °F 30.5 °F 25.0 °F 60% 30.03 in 10.0 mi NNE 11.5 mph - N/A   Clear
8:53 PM 37.0 °F 28.9 °F 25.0 °F 62% 30.08 in 10.0 mi NNW 12.7 mph - N/A   Clear
9:53 PM 39.0 °F 30.6 °F 28.0 °F 65% 30.09 in 10.0 mi NNW 15.0 mph 18.4 mph N/A   Overcast
10:53 PM 37.9 °F 32.1 °F 28.9 °F 70% 30.12 in 10.0 mi North 8.1 mph - N/A   Overcast
11:53 PM 37.9 °F 30.9 °F 30.0 °F 73% 30.14 in 10.0 mi North 10.4 mph - N/A   Overcast